Orbital Elements at Epoch 2459200.5 (2020-Dec-17.0) TDB
Reference: JPL 26 (heliocentric ecliptic J2000)
Element | Value | Uncertainty (1-sigma) | Units |
e | .317731536048506 | 7.4547e-08 | |
a | 2.54551198168177 | 1.4858e-08 | au |
q | 1.736722549712145 | 1.9462e-07 | au |
i | 12.9815515644311 | 4.088e-06 | deg |
node | 116.7585862467761 | 3.3729e-05 | deg |
peri | 250.8120673807139 | 3.3927e-05 | deg |
M | 287.5873837408475 | 7.5592e-06 | deg |
tp | 2459498.882180449956 (2021-Oct-11.38218045) | 3.1985e-05 | TDB |
period | 1483.409804964856 4.06 | 1.2988e-05 3.556e-08 | d yr |
n | .2426841178985796 | 2.1248e-09 | deg/d |
Q | 3.354301413651396 | 1.9578e-08 | au |
|
| | Orbit Determination Parameters
Additional Information
|